Location: Borojevi?i
(45.0486°N, 16.2297°E)
Time: 23:04:05
(UTC+00:00)

Cosmos 2322 Rocket - Pass Details

Date: 08 August 2020
Orbit: 831 x 852 km, 71.0° (Epoch: 23 September)

Event Time Altitude Azimuth Distance (km) Brightness Sun altitude
Rises 21:57:40 0° 330° (NNW) 3,418 6.6 -27.5°
Reaches altitude 10° 22:00:09 10° 327° (NNW) 2,482 5.5 -27.6°
Enters shadow 22:05:38 57° 254° (WSW) 1,000 2.4 -27.9°
